Temp
75 78 82 83 83 83 83 83 83 83 83 82 82 82 83 83 83 83 83 83 83 83 84 83 83 83 83 83 84 83 83 83 82 83 82 82 82 82 82 82 81 80 81
77 80 82 83 83 83 83 83 82 82 83 82 83 83 83 83 83 83 83 83 83 83 83 83 83 83 83 83 83 83 83 83 83 83 83 82 82 82 82 81 82 80 82
78 79 82 82 83 83 83 83 82 83 83 83 83 83 83 83 83 83 83 83 83 83 83 82 83 82 83 83 83 83 83 83 83 83 82 76 79 83 82 82 82 82 81
78 77 79 82 83 83 83 82 82 83 83 83 83 83 83 83 83 83 83 83 83 83 84 84 83 83 83 83 83 83 83 82 83 82 77 78 82 83 82 82 82 81 81
77 77 79 83 83 83 82 82 82 83 83 83 83 83 83 83 83 83 83 83 83 83 83 83 83 83 83 82 82 82 82 82 83 80 75 75 75 82 82 82 81 81 81
76 77 82 83 83 83 83 82 83 83 82 83 83 83 83 83 83 83 83 83 83 83 83 83 84 83 83 82 82 81 81 81 83 78 76 77 75 82 82 82 82 81 80
76 77 80 82 83 83 83 83 83 83 83 83 83 83 83 83 83 83 83 83 83 83 83 82 83 83 83 82 80 81 82 82 77 76 75 75 75 81 82 82 81 81 81
76 77 79 82 82 83 83 83 83 83 83 83 83 83 83 83 82 83 83 83 83 83 83 83 82 83 82 82 81 80 82 82 78 77 76 75 77 81 82 82 81 81 80
78 77 76 78 81 83 83 83 83 83 83 83 83 83 83 83 83 83 82 82 83 83 82 83 83 82 82 82 82 81 81 82 74 75 78 75 78 81 82 81 81 81 80
76 75 75 75 76 76 77 82 82 83 83 83 83 83 83 83 83 83 82 82 83 83 83 82 83 82 82 82 82 82 82 83 76 75 75 76 79 82 82 81 81 80 80
75 74 74 74 74 74 75 79 82 83 83 83 82 83 82 76 77 80 81 81 83 83 83 83 83 82 82 82 82 82 81 73 75 75 75 79 80 82 82 81 81 80 80
73 73 73 74 73 74 79 75 76 76 76 75 76 75 75 74 73 78 79 82 83 83 83 83 83 82 81 74 73 79 73 74 73 74 74 79 80 82 82 81 80 80 80
75 75 75 74 74 73 75 74 74 74 74 74 75 74 74 73 73 74 73 74 74 80 76 78 75 74 74 73 72 72 73 73 73 73 76 79 80 82 82 81 80 80 80
75 76 76 75 74 74 73 74 74 74 73 73 74 74 72 72 71 71 71 72 72 72 71 70 70 70 70 72 72 72 72 73 72 72 73 80 80 81 81 80 80 80 80
75 77 76 76 75 74 73 72 72 73 72 72 72 72 72 71 70 70 71 70 71 71 70 68 68 70 70 71 71 72 73 73 74 73 72 79 80 80 81 81 81 81 80
77 77 77 76 75 73 71 70 68 70 70 70 71 71 71 70 70 70 70 70 70 70 70 69 69 68 68 70 71 71 72 73 73 74 74 74 81 80 81 82 81 81 81
79 79 76 76 75 73 72 71 70 71 72 71 71 71 71 70 71 70 69 68 69 70 69 68 68 68 68 69 69 71 72 73 73 73 73 73 75 81 80 81 81 81 81
79 77 76 79 75 73 71 71 70 70 70 70 71 71 71 72 72 70 70 69 69 69 68 67 66 67 67 67 67 68 71 72 73 73 73 74 74 77 80 80 80 80 81
78 77 74 75 74 72 72 70 70 69 69 69 69 70 72 72 72 71 70 69 69 69 68 68 68 68 67 68 68 70 70 70 71 75 73 73 73 75 75 79 80 80 81
78 76 76 74 73 71 70 69 68 68 68 68 68 68 70 70 72 72 71 71 69 68 68 68 67 68 68 68 70 70 69 70 70 70 72 74 74 74 74 75 76 77 80
77 75 74 73 71 71 69 69 67 65 66 67 68 71 71 71 72 71 69 70 70 69 68 69 68 68 68 68 67 67 67 69 69 70 70 70 71 73 72 74 71 72 73
77 76 74 73 71 71 71 70 69 66 66 66 68 70 71 71 72 71 70 70 71 69 69 70 69 67 66 67 65 64 62 65 66 68 68 70 70 71 71 72 72 72 71
76 75 74 72 71 71 72 69 68 67 66 67 68 69 70 71 71 71 71 70 70 69 68 68 68 67 66 66 67 64 60 60 62 66 69 69 69 68 70 70 71 71 70
77 77 74 73 71 71 71 69 68 66 65 66 68 69 70 72 72 71 71 70 69 68 67 68 69 68 66 65 66 67 66 65 62 60 65 67 68 68 68 69 70 70 70
79 76 75 75 71 71 70 70 67 65 66 68 69 69 69 69 71 72 70 69 68 67 67 68 68 67 67 66 65 65 65 65 65 62 60 64 66 67 69 69 69 70 68
79 75 73 71 71 71 70 70 69 68 68 68 68 67 68 68 68 69 69 68 67 67 67 68 68 68 67 67 66 66 66 64 63 63 63 64 64 65 65 67 69 68 68
MSLP
1012.75 1012.44 1012.86 1012.99 1013.18 1013.50 1013.80 1013.99 1014.18 1014.29 1014.50 1014.63 1014.74 1014.89 1015.09 1015.33 1015.51 1015.51 1015.55 1015.55 1015.74 1015.91 1015.97 1015.99 1016.07 1016.11 1016.14 1016.19 1016.43 1016.62 1016.72 1016.84 1016.97 1017.09 1017.19 1017.27 1017.45 1017.59 1017.73 1017.82 1017.99 1018.07 1018.16
1012.45 1012.69 1012.89 1013.15 1013.37 1013.67 1013.90 1014.04 1014.32 1014.55 1014.81 1014.96 1015.06 1015.18 1015.38 1015.58 1015.68 1015.67 1015.71 1015.77 1015.78 1016.01 1016.07 1016.13 1016.32 1016.34 1016.29 1016.50 1016.76 1016.95 1017.08 1017.05 1017.15 1017.32 1017.40 1017.55 1017.64 1017.84 1018.05 1018.18 1018.31 1018.31 1018.28
1012.47 1012.72 1012.98 1013.30 1013.46 1013.71 1013.91 1014.09 1014.35 1014.54 1014.79 1014.99 1015.20 1015.39 1015.58 1015.69 1015.79 1015.81 1015.84 1015.97 1015.97 1015.98 1016.13 1016.28 1016.50 1016.65 1016.57 1016.76 1016.96 1017.15 1017.23 1017.31 1017.34 1017.46 1017.60 1017.90 1017.93 1018.03 1018.26 1018.34 1018.42 1018.56 1018.65
1012.57 1012.80 1013.08 1013.32 1013.49 1013.66 1013.98 1014.26 1014.48 1014.67 1014.84 1015.08 1015.30 1015.45 1015.66 1015.87 1015.93 1016.01 1015.99 1016.03 1016.08 1016.17 1016.25 1016.38 1016.55 1016.64 1016.78 1017.00 1017.10 1017.32 1017.44 1017.58 1017.58 1017.73 1017.91 1017.93 1017.95 1018.17 1018.45 1018.54 1018.53 1018.68 1018.95
1012.92 1013.02 1013.17 1013.28 1013.43 1013.60 1014.00 1014.38 1014.68 1014.77 1014.90 1015.08 1015.30 1015.48 1015.68 1015.93 1016.02 1016.17 1016.19 1016.15 1016.18 1016.33 1016.46 1016.53 1016.68 1016.93 1017.07 1017.21 1017.36 1017.52 1017.63 1017.72 1017.82 1018.04 1018.20 1018.16 1018.33 1018.32 1018.54 1018.72 1018.85 1018.98 1019.13
1013.21 1013.18 1013.19 1013.26 1013.38 1013.71 1014.04 1014.43 1014.68 1014.84 1015.00 1015.14 1015.32 1015.45 1015.66 1015.83 1015.99 1016.10 1016.28 1016.41 1016.36 1016.41 1016.54 1016.68 1016.84 1017.02 1017.25 1017.45 1017.59 1017.69 1017.85 1017.91 1017.95 1018.15 1018.33 1018.38 1018.49 1018.53 1018.63 1018.79 1019.02 1019.28 1019.40
1013.23 1013.17 1013.17 1013.25 1013.47 1013.75 1014.07 1014.37 1014.71 1014.88 1015.03 1015.16 1015.36 1015.50 1015.66 1015.80 1016.00 1016.12 1016.14 1016.38 1016.52 1016.52 1016.60 1016.91 1016.97 1017.01 1017.25 1017.55 1017.73 1017.84 1017.84 1017.96 1018.14 1018.06 1018.36 1018.51 1018.68 1018.65 1018.75 1018.88 1019.14 1019.39 1019.54
1013.49 1013.42 1013.43 1013.50 1013.63 1013.90 1014.16 1014.43 1014.78 1015.04 1015.14 1015.22 1015.35 1015.52 1015.59 1015.68 1015.85 1016.00 1016.12 1016.33 1016.44 1016.61 1016.70 1016.77 1016.91 1016.99 1017.16 1017.37 1017.67 1017.87 1017.86 1017.91 1018.06 1018.00 1018.36 1018.54 1018.65 1018.71 1018.84 1019.03 1019.28 1019.47 1019.64
1013.58 1013.72 1013.88 1013.85 1013.80 1013.91 1014.15 1014.40 1014.67 1014.87 1015.08 1015.26 1015.35 1015.53 1015.61 1015.68 1015.79 1015.95 1016.19 1016.29 1016.48 1016.48 1016.55 1016.66 1016.74 1016.89 1017.09 1017.29 1017.47 1017.67 1017.78 1017.88 1018.11 1018.12 1018.23 1018.59 1018.57 1018.65 1018.79 1019.05 1019.27 1019.52 1019.71
1013.96 1013.87 1014.02 1014.08 1014.02 1014.06 1014.14 1014.38 1014.53 1014.77 1015.00 1015.17 1015.34 1015.42 1015.57 1015.64 1015.78 1015.92 1016.17 1016.38 1016.41 1016.51 1016.57 1016.57 1016.77 1016.84 1016.99 1017.19 1017.36 1017.49 1017.59 1017.69 1017.97 1017.99 1018.14 1018.37 1018.52 1018.61 1018.80 1019.01 1019.23 1019.46 1019.69
1014.02 1014.14 1014.20 1014.20 1014.41 1014.29 1014.17 1014.28 1014.33 1014.55 1014.81 1015.03 1015.22 1015.29 1015.38 1015.67 1015.69 1015.81 1016.02 1016.21 1016.39 1016.51 1016.56 1016.58 1016.69 1016.75 1016.85 1017.03 1017.22 1017.41 1017.50 1017.78 1017.88 1018.02 1018.11 1018.18 1018.35 1018.53 1018.74 1018.98 1019.16 1019.41 1019.60
1013.92 1013.97 1014.26 1014.24 1014.41 1014.55 1014.42 1014.48 1014.49 1014.61 1014.70 1014.93 1015.21 1015.29 1015.43 1015.74 1015.88 1015.79 1015.87 1016.01 1016.20 1016.43 1016.53 1016.59 1016.65 1016.68 1016.87 1017.23 1017.33 1017.24 1017.55 1017.67 1017.83 1017.89 1017.97 1018.02 1018.15 1018.41 1018.61 1018.81 1019.02 1019.24 1019.44
1013.42 1013.86 1014.04 1014.15 1014.27 1014.46 1014.36 1014.42 1014.51 1014.59 1014.69 1014.84 1015.07 1015.34 1015.46 1015.62 1015.77 1015.93 1015.97 1016.01 1016.19 1016.27 1016.53 1016.54 1016.77 1016.95 1017.04 1017.10 1017.25 1017.27 1017.33 1017.52 1017.78 1017.80 1017.72 1017.72 1017.89 1018.06 1018.19 1018.46 1018.78 1019.10 1019.26
1013.35 1013.41 1013.84 1013.88 1014.16 1014.23 1014.25 1014.27 1014.36 1014.45 1014.45 1014.56 1014.67 1014.83 1015.37 1015.57 1015.70 1015.78 1015.87 1016.00 1016.25 1016.40 1016.65 1016.74 1016.89 1016.94 1017.07 1017.04 1016.96 1016.98 1017.17 1017.29 1017.43 1017.63 1017.68 1017.56 1017.64 1017.75 1017.85 1018.11 1018.43 1018.75 1019.04
1012.86 1012.98 1013.35 1013.66 1013.80 1013.85 1014.18 1014.36 1014.40 1014.27 1014.30 1014.30 1014.57 1014.65 1014.82 1015.22 1015.67 1015.53 1015.72 1016.06 1016.21 1016.44 1016.60 1016.80 1016.98 1016.87 1016.99 1017.13 1016.95 1016.74 1016.86 1016.98 1017.12 1017.32 1017.52 1017.32 1017.34 1017.58 1017.75 1017.89 1018.25 1018.38 1018.66
1012.14 1012.55 1012.86 1013.12 1013.50 1013.70 1014.13 1014.31 1014.32 1014.36 1014.34 1014.44 1014.60 1014.71 1014.87 1015.21 1015.41 1015.44 1015.70 1015.96 1016.20 1016.35 1016.58 1016.68 1016.92 1017.02 1017.09 1016.95 1016.90 1016.72 1016.53 1016.66 1016.75 1016.92 1017.05 1017.11 1016.94 1017.16 1017.42 1017.57 1017.76 1017.98 1018.16
1011.50 1011.89 1012.60 1012.93 1013.42 1013.85 1014.16 1014.25 1014.28 1014.38 1014.26 1014.36 1014.37 1014.16 1014.56 1014.98 1015.11 1015.30 1015.72 1016.04 1016.05 1016.11 1016.39 1016.61 1016.77 1016.94 1016.93 1016.67 1016.69 1016.55 1016.20 1016.18 1016.33 1016.50 1016.67 1016.89 1016.93 1016.82 1017.05 1017.10 1017.28 1017.40 1017.54
1011.23 1011.69 1012.10 1012.62 1013.14 1013.46 1014.11 1014.26 1014.50 1014.43 1014.21 1014.12 1013.92 1014.18 1014.31 1014.59 1014.76 1015.16 1015.53 1015.77 1015.72 1015.88 1016.12 1016.47 1016.74 1016.83 1016.68 1016.64 1016.55 1016.35 1016.04 1015.79 1015.90 1016.05 1016.19 1016.40 1016.52 1016.53 1016.64 1016.79 1016.91 1017.10 1017.22
1010.49 1011.21 1011.94 1012.27 1012.82 1013.42 1013.93 1014.15 1014.24 1014.24 1014.23 1014.17 1014.30 1014.28 1014.37 1014.50 1014.66 1014.88 1015.26 1015.44 1015.45 1015.68 1016.00 1016.20 1016.43 1016.55 1016.49 1016.42 1016.36 1016.15 1015.74 1015.74 1015.79 1015.78 1015.86 1015.91 1016.07 1016.21 1016.38 1016.39 1016.48 1016.68 1016.90
1010.14 1010.87 1011.69 1012.48 1013.10 1013.58 1013.69 1014.20 1014.24 1014.38 1014.41 1014.43 1014.38 1014.35 1014.31 1014.45 1014.63 1014.72 1014.82 1014.97 1015.23 1015.58 1015.74 1015.86 1015.96 1016.09 1016.13 1016.04 1016.21 1016.01 1015.69 1015.50 1015.56 1015.62 1015.69 1015.62 1015.70 1015.84 1015.94 1016.01 1016.12 1016.28 1016.45
1010.14 1010.92 1011.61 1012.56 1013.08 1013.33 1013.78 1014.12 1014.39 1014.53 1014.55 1014.59 1014.37 1014.11 1014.13 1014.05 1014.33 1014.55 1014.80 1014.95 1014.95 1015.24 1015.31 1015.36 1015.47 1015.56 1015.64 1015.65 1015.91 1015.66 1015.45 1015.36 1015.26 1015.20 1015.20 1015.45 1015.47 1015.48 1015.58 1015.65 1015.81 1015.94 1016.10
1010.06 1010.84 1011.23 1011.83 1012.49 1012.83 1013.18 1013.53 1013.68 1014.20 1014.38 1014.27 1014.25 1014.09 1013.94 1014.08 1014.23 1014.62 1014.76 1014.83 1014.89 1015.01 1015.04 1014.97 1015.00 1015.35 1015.53 1015.46 1015.67 1015.95 1015.99 1015.72 1015.47 1015.57 1015.51 1015.55 1015.49 1015.31 1015.35 1015.40 1015.52 1015.54 1015.87
1010.34 1010.71 1010.87 1011.80 1012.33 1012.92 1013.32 1013.34 1013.63 1013.95 1014.13 1014.18 1014.21 1014.22 1013.98 1013.96 1014.09 1014.23 1014.25 1014.62 1014.69 1014.74 1014.82 1014.78 1014.87 1015.11 1015.11 1015.08 1015.16 1015.48 1015.93 1016.08 1016.02 1015.99 1015.80 1015.74 1015.60 1015.45 1015.22 1015.19 1015.41 1015.62 1016.04
1009.93 1010.35 1010.54 1010.59 1011.94 1012.56 1013.03 1013.35 1013.40 1013.67 1014.10 1014.03 1013.98 1014.09 1014.05 1013.74 1013.83 1013.94 1014.08 1014.30 1014.67 1014.74 1014.78 1014.69 1014.62 1014.70 1014.85 1015.07 1015.07 1014.98 1015.19 1015.46 1015.90 1016.22 1016.12 1016.10 1016.01 1015.82 1015.71 1015.65 1015.89 1016.27 1016.65
1009.75 1009.10 1008.67 1009.21 1010.27 1012.19 1012.64 1012.69 1013.19 1013.53 1013.76 1013.81 1013.86 1014.12 1014.24 1014.31 1014.09 1014.18 1014.33 1014.43 1014.70 1014.70 1014.67 1014.68 1014.62 1014.60 1014.59 1014.79 1014.97 1014.96 1015.13 1015.38 1015.53 1015.90 1016.22 1016.26 1016.27 1016.33 1016.08 1015.87 1015.92 1016.15 1016.96
1009.53 1008.27 1008.74 1008.77 1009.95 1012.17 1012.50 1012.45 1012.76 1013.03 1013.38 1013.83 1014.10 1014.26 1014.42 1014.45 1014.65 1014.40 1014.57 1014.55 1014.55 1014.71 1014.76 1014.71 1014.75 1014.66 1014.65 1014.72 1014.68 1014.80 1014.97 1015.15 1015.22 1015.49 1015.83 1016.25 1016.57 1016.81 1016.58 1016.27 1016.40 1016.62 1016.75
Wind_Speed
4 7 11 12 12 11 12 14 15 16 17 17 17 17 16 16 15 15 14 14 12 10 9 8 9 10 13 12 12 13 13 14 15 15 15 16 15 15 13 15 14 10 14
7 6 12 11 13 13 12 13 14 14 15 15 15 16 15 14 13 13 13 13 13 10 10 10 10 10 11 13 12 13 14 14 15 15 14 14 14 13 13 12 13 9 14
9 6 9 11 12 12 12 13 13 14 14 14 13 14 13 12 12 12 11 11 11 12 12 9 10 10 12 12 11 12 14 14 14 13 11 4 7 14 13 13 13 14 12
8 6 6 11 11 12 12 12 12 12 14 13 12 12 11 10 10 9 8 9 10 9 11 10 10 10 11 11 11 12 12 13 14 12 5 3 9 13 13 11 11 13 11
6 6 7 13 12 13 13 12 12 12 13 14 12 11 9 9 9 9 8 7 8 9 8 10 9 8 9 10 9 11 11 11 13 10 3 5 4 10 13 12 12 10 11
6 6 10 13 13 12 12 12 12 12 11 12 13 12 11 9 7 7 6 6 7 7 8 8 8 8 7 8 6 8 11 10 11 5 4 6 5 12 13 11 13 10 8
8 6 9 13 12 12 12 12 12 12 12 12 11 10 10 9 7 7 7 6 6 6 6 6 7 8 8 6 4 4 7 7 3 4 5 5 4 11 13 12 12 11 10
7 5 6 12 12 12 12 12 11 11 12 12 12 10 8 8 7 4 6 6 7 7 6 6 6 6 7 7 5 3 4 4 3 5 5 5 7 11 12 12 12 10 11
5 4 3 5 10 14 13 12 12 13 12 12 11 11 10 9 8 7 6 6 8 8 9 8 7 6 6 6 6 5 3 2 3 0 7 4 10 12 13 12 12 11 11
4 4 4 4 5 6 6 13 13 12 12 12 12 12 11 11 9 7 6 4 5 6 6 7 7 7 6 4 4 5 4 1 3 1 4 5 12 14 13 12 12 12 11
5 5 3 4 4 5 5 7 11 13 12 12 11 12 10 3 5 6 6 7 7 5 5 6 8 8 7 7 5 5 4 1 2 1 3 8 11 13 13 13 13 12 12
8 7 6 5 5 4 4 4 4 4 3 3 4 5 4 5 4 5 7 9 9 7 6 5 4 5 5 2 2 4 1 2 2 2 2 10 12 15 14 14 14 14 13
10 7 10 8 5 6 5 3 2 3 3 3 5 5 4 3 3 3 2 3 2 7 1 2 2 2 2 2 2 2 3 3 2 3 3 10 13 16 17 16 16 14 14
10 11 9 8 7 7 4 4 3 3 3 3 5 6 4 3 3 4 3 2 4 2 4 3 3 4 4 4 4 2 3 3 2 3 4 9 14 14 15 16 17 16 15
10 11 10 9 9 8 6 3 3 4 3 2 3 3 3 4 4 3 4 3 3 3 3 4 3 3 2 4 4 4 4 4 4 3 3 11 15 15 15 16 17 17 16
11 11 9 10 8 5 5 4 3 2 3 3 3 3 3 3 4 4 3 3 4 3 3 3 3 2 3 3 4 5 4 4 5 5 3 4 13 16 16 15 16 18 17
12 10 9 9 6 7 5 4 3 3 3 2 3 5 5 5 4 4 4 4 3 4 5 3 3 3 4 3 5 4 4 4 4 5 5 4 5 16 18 17 16 17 18
10 10 8 7 8 6 5 4 3 3 3 3 3 3 5 4 5 5 4 4 4 3 3 3 3 4 4 3 4 5 3 3 5 6 5 4 4 5 11 17 16 15 17
13 11 8 8 8 7 6 5 4 3 1 2 1 2 3 3 4 5 4 4 4 3 3 3 3 3 3 3 3 4 3 3 3 3 5 5 6 6 4 10 17 17 17
11 9 8 5 6 7 3 4 4 3 1 1 3 3 5 4 5 4 3 4 4 3 3 3 4 4 4 3 3 4 3 4 3 4 5 4 5 6 6 6 5 7 17
8 9 10 9 7 6 3 2 2 3 2 2 3 4 4 4 4 5 3 3 4 3 4 4 2 4 2 3 1 2 2 4 5 4 3 3 5 6 6 6 3 3 2
12 10 10 9 9 6 4 3 3 3 2 1 2 3 4 4 4 4 4 3 4 3 4 3 2 1 2 4 3 1 2 4 3 4 3 2 5 4 4 4 6 6 5
10 11 11 7 7 5 3 4 3 3 2 1 1 2 3 5 5 5 4 3 1 3 3 3 3 5 2 1 4 4 2 2 1 3 5 5 5 2 3 3 3 3 3
11 8 10 11 8 5 7 4 5 4 4 3 2 1 1 3 2 4 4 4 2 1 1 2 1 2 2 3 1 3 1 3 3 2 2 2 4 5 4 3 4 3 2
10 11 15 12 11 6 6 7 5 4 3 2 2 3 3 2 4 4 4 5 3 1 1 2 1 1 2 2 3 1 1 1 1 2 2 1 3 4 4 3 3 3 3
8 8 11 3 8 7 6 6 7 7 4 3 3 4 3 3 2 4 3 3 2 2 2 2 1 1 2 2 1 2 3 3 3 3 2 2 2 3 5 6 4 3 3
Wind_Direction
187 146 153 145 138 132 128 121 117 115 114 112 114 116 121 126 131 133 132 126 121 124 127 119 115 126 121 118 118 119 120 124 121 126 127 123 124 125 119 118 113 117 122
131 140 151 149 145 141 134 126 120 118 116 114 115 117 122 126 129 131 134 131 129 124 127 123 124 117 113 115 121 127 128 132 130 129 124 128 119 117 120 117 121 125 117
137 141 150 155 151 143 137 134 130 128 122 118 116 117 120 124 124 126 131 137 131 129 128 124 126 128 117 119 132 130 132 136 132 125 119 101 133 127 122 129 131 123 122
133 128 146 156 150 146 144 144 141 136 129 125 122 124 125 125 116 124 123 128 132 136 130 130 139 128 123 129 136 136 138 142 137 134 117 107 134 135 124 129 122 118 126
118 136 160 156 157 153 152 151 151 147 142 137 135 133 132 135 130 122 124 127 131 135 137 136 134 129 131 132 142 150 148 150 146 138 132 120 114 138 137 141 126 127 132
143 148 159 159 160 157 157 159 161 155 150 144 148 145 145 146 144 144 141 138 128 136 142 141 145 138 135 135 150 155 152 160 167 156 149 154 140 149 145 147 139 138 138
158 163 157 156 160 160 163 168 166 158 154 152 153 153 156 156 155 157 154 165 159 139 148 158 151 145 140 138 135 141 153 168 155 153 162 146 164 156 153 159 141 149 145
155 145 158 156 157 160 167 172 168 165 162 162 165 164 168 165 163 171 162 161 166 165 166 166 160 158 155 151 150 155 167 164 106 121 135 155 182 170 159 153 153 155 155
148 143 156 162 170 167 169 174 174 173 171 171 171 171 174 183 176 173 169 175 172 174 179 175 174 176 181 168 160 169 200 174 108 101 172 166 190 177 168 167 165 163 166
155 164 181 189 179 167 176 177 182 181 179 180 179 179 182 182 184 183 175 204 193 188 185 189 188 195 191 196 191 183 199 189 81 1 148 178 186 182 178 177 180 172 174
177 181 210 208 210 191 188 193 190 189 190 192 189 187 186 171 186 198 185 206 211 208 205 199 198 201 196 207 211 239 209 146 158 129 180 196 184 184 185 186 185 183 184
195 191 195 214 203 211 208 218 193 211 197 194 196 209 169 174 200 195 205 217 211 212 209 205 205 221 212 213 252 254 162 188 171 251 205 204 192 192 190 189 194 193 194
197 190 197 201 194 203 219 202 202 204 200 200 212 207 197 177 198 232 213 234 194 205 199 179 78 83 135 175 229 219 207 215 190 230 252 203 200 199 195 194 196 201 203
194 198 196 197 191 209 211 199 211 206 216 204 210 203 176 195 196 200 191 178 157 178 165 172 183 188 200 214 205 233 253 230 199 218 223 238 208 207 205 198 199 202 209
195 201 196 191 197 205 207 188 220 221 238 261 272 268 166 196 172 159 158 148 167 163 179 190 205 201 210 246 244 208 227 238 212 214 225 235 215 212 216 203 206 205 210
197 207 190 197 192 180 198 204 226 265 283 227 214 237 194 199 181 173 147 168 174 175 194 185 199 224 243 260 272 246 206 230 226 218 225 246 215 212 217 215 212 210 212
200 199 192 191 167 183 189 169 197 273 270 208 187 198 220 213 193 162 172 182 203 197 201 208 222 220 254 248 262 262 225 212 219 218 207 227 247 231 215 217 218 217 211
181 190 188 181 173 173 165 151 169 222 232 196 204 208 209 216 177 151 166 185 205 189 199 203 218 247 241 230 248 249 230 223 208 217 209 207 208 222 222 221 224 230 222
183 180 187 170 169 139 151 135 132 135 134 144 161 178 198 245 160 144 173 197 204 194 209 205 215 218 243 228 241 269 266 248 222 211 226 222 214 214 204 224 231 224 230
175 174 174 147 143 135 134 138 101 91 102 185 193 203 189 209 205 170 191 203 192 201 226 221 220 214 218 207 232 253 238 239 229 214 220 231 219 213 209 210 216 226 231
157 156 160 150 163 154 147 122 109 141 202 213 239 221 229 205 206 197 199 215 226 226 242 228 191 208 261 197 225 330 309 241 240 238 230 231 234 221 221 220 204 206 204
172 175 161 168 163 171 147 169 144 152 205 200 208 226 207 225 193 208 226 238 229 208 245 251 184 114 226 189 143 128 3 328 22 26 16 295 249 226 222 219 192 183 185
168 176 171 155 173 167 165 122 96 90 64 22 239 252 233 204 209 206 203 217 238 177 200 220 201 193 218 192 196 152 127 218 334 7 25 18 5 290 227 190 177 154 132
179 177 135 156 193 167 171 154 150 166 158 219 208 167 73 191 184 158 136 121 107 107 207 230 230 213 155 237 340 232 193 147 160 317 25 9 41 12 35 56 63 59 89
168 190 170 176 146 170 174 165 157 162 171 180 150 135 115 101 96 100 126 126 128 130 252 271 276 208 177 180 190 212 217 171 132 136 245 67 58 8 23 83 104 95 88
161 218 71 41 122 164 174 170 166 165 171 158 148 155 154 135 110 119 108 103 126 172 194 208 226 186 168 191 196 212 195 187 183 160 140 103 107 45 36 33 54 90 101